This demonstration page uses our WeatherBlox Daily Observations layout. Learn more.

Left ArrowRight Arrow

39.92423, -83.80882

Hourly Observations for April 23, 2021

Temp ( °F °C ) Dew Point ( °F °C ) Humidity (%) Winds ( mph kmh ) Pressure ( in mb ) Visibility ( mi km ) Precip ( " mm )
12:56 am 00:56 Clear 37 2.8 27 -2.8 67 67 SW 8 13 30.16 1021 10 16.0934 N/A
1:56 am 01:56 Clear 36 2.2 27 -2.8 70 70 SW 7 11 30.15 1021 10 16.0934 N/A
2:56 am 02:56 Clear 36 2.2 27 -2.8 70 70 SW 7 11 30.15 1021 10 16.0934 N/A
3:56 am 03:56 Clear 34 1.1 27 -2.8 76 76 SW 7 11 30.14 1021 10 16.0934 N/A
4:56 am 04:56 Clear 33 0.6 27 -2.8 78 78 SW 5 7 30.15 1021 10 16.0934 N/A
5:56 am 05:56 Clear 31 -0.6 27 -2.8 85 85 SW 6 9 30.15 1021 10 16.0934 N/A
6:56 am 06:56 Sunny 34 1.1 27 -2.8 76 76 SW 5 7 30.17 1022 10 16.0934 N/A
7:56 am 07:56 Sunny 38 3.3 30 -1.1 73 73 SW 3 6 30.19 1022 10 16.0934 N/A
8:56 am 08:56 Sunny 43 6.1 31 -0.6 63 63 SW 7 11 30.2 1023 10 16.0934 N/A
9:56 am 09:56 Sunny 47 8.3 31 -0.6 54 54 W 7 11 30.2 1023 10 16.0934 N/A
10:24 am 10:24 Mostly Sunny 48 9 30 -1 50 50 SW 6 9 30.19 1022 10 16.0934 N/A
10:56 am 10:56 Sunny 50 10 29 -1.7 44 44 W 8 13 30.19 1022 10 16.0934 N/A
11:56 am 11:56 Sunny 53 11.7 28 -2.2 38 38 WSW 7 11 30.18 1022 10 16.0934 N/A
12:56 pm 12:56 Sunny 54 12.2 28 -2.2 37 37 WSW 13 20 30.17 1022 10 16.0934 N/A
1:56 pm 13:56 Mostly Cloudy 53 11.7 27 -2.8 37 37 VRB 6 9 30.15 1021 10 16.0934 N/A
2:56 pm 14:56 Partly Cloudy 55 12.8 27 -2.8 34 34 S 8 13 30.13 1020 10 16.0934 N/A
3:56 pm 15:56 Cloudy 56 13.3 27 -2.8 33 33 S 10 17 30.11 1020 10 16.0934 N/A
4:56 pm 16:56 Sunny 57 13.9 27 -2.8 32 32 SW 7 11 30.09 1019 10 16.0934 N/A
5:56 pm 17:56 Mostly Cloudy 58 14.4 30 -1.1 35 35 SSW 14 22 30.08 1019 10 16.0934 N/A
6:56 pm 18:56 Sunny 56 13.3 30 -1.1 37 37 S 8 13 30.08 1019 10 16.0934 N/A
7:56 pm 19:56 Sunny 53 11.7 34 1.1 48 48 SSW 9 15 30.08 1019 10 16.0934 N/A
8:56 pm 20:56 Mostly Cloudy 50 10 35 1.7 57 57 S 3 6 30.07 1018 10 16.0934 N/A
9:56 pm 21:56 Cloudy 50 10 36 2.2 59 59 S 5 7 30.07 1018 10 16.0934 N/A
10:56 pm 22:56 Mostly Cloudy 49 9.4 36 2.2 61 61 S 5 7 30.08 1019 10 16.0934 N/A
11:56 pm 23:56 Clear 48 8.9 37 2.8 66 66 S 5 7 30.06 1018 10 16.0934 N/A

Powered by AerisWeather